Date String (YYYY-MM-DD hh:mm:ss) UTC,Instrument flags,absolute air pressure of the measurement (hPa),sample flow rate (lpm),inlet stack bypass flow (lpm),air temperature of the measurement (°C),ambient temperature measured by the external sensor (°C),aerosol sample conditioner tube jacket temperature (°C),OPC LED temperature (°C),internal box temperature (°C),relative humidity of the measurement (%),span deviation,mass concentration of particles derived from Lorenz-Mie calculation of OPC scattering (μg/m³),mass concentration of particles derived from Lorenz-Mie calculation of OPC scattering (μg/m³),mass concentration of particles derived from Lorenz-Mie calculation of OPC scattering (μg/m³)
DateTimeUTC,F1_M11,P_M11,Q1_M11,Q2_M11,T1_M11,T2_M11,T3_M11,T4_M11,T5_M11,U1_M11,ZSPAN_M11,X0_M11,X2_M11,X1_M11
2023-09-01 16:00:00,SystemResetWarning,0831.3,5.01,000.00,027.7,025.4,000.0,036.1,029.2,20.3,0000.0,0010.16,0003.37,0002.72
2023-09-01 16:01:00,SystemResetWarning,0831.3,5.01,000.00,027.8,025.8,000.0,036.1,029.4,20.2,0000.0,0010.07,0003.36,0002.74
2023-09-01 16:02:00,SystemResetWarning,0831.4,5.00,000.00,027.8,026.1,000.0,036.1,029.5,20.7,0000.0,0010.08,0003.38,0002.77
2023-09-01 16:03:00,SystemResetWarning,0831.4,5.00,000.00,027.8,026.4,000.0,036.2,029.6,20.4,0000.0,0010.66,0003.44,0002.80
2023-09-01 16:04:00,SystemResetWarning,0831.4,5.00,000.00,027.9,026.7,000.0,036.2,029.6,20.5,0000.0,0010.74,0003.48,0002.82
2023-09-01 16:05:00,SystemResetWarning,0831.4,4.98,000.00,027.9,026.2,000.0,036.2,029.5,20.4,0000.0,0010.92,0003.49,0002.83
2023-09-01 16:06:00,SystemResetWarning,0831.3,4.99,000.00,027.8,024.8,000.0,036.1,029.0,20.1,0000.0,0010.83,0003.51,0002.85
2023-09-01 16:07:00,SystemResetWarning,0831.3,5.01,000.00,027.7,024.5,000.0,036.0,029.0,20.2,0000.0,0010.62,0003.53,0002.86
2023-09-01 16:08:00,SystemResetWarning,0831.4,5.01,000.00,027.7,024.8,000.0,036.0,029.0,19.8,0000.0,0010.52,0003.53,0002.89
2023-09-01 16:09:00,SystemResetWarning,0831.4,5.00,000.00,027.7,025.2,000.0,036.0,029.1,20.1,0000.0,0010.91,0003.54,0002.91
2023-09-01 16:10:00,SystemResetWarning,0831.5,4.99,000.00,027.7,025.5,000.0,036.1,029.3,21.1,0000.0,0011.59,0003.59,0002.93
2023-09-01 16:11:00,SystemResetWarning,0831.5,5.00,000.00,027.8,025.9,000.0,036.1,029.4,22.5,0000.0,0011.20,0003.64,0002.96
2023-09-01 16:12:00,SystemResetWarning,0831.4,5.00,000.00,027.8,026.2,000.0,036.1,029.5,22.8,0000.0,0011.93,0003.69,0003.00
2023-09-01 16:13:00,SystemResetWarning,0831.5,5.01,000.00,027.9,026.5,000.0,036.1,029.6,23.2,0000.0,0012.44,0003.74,0003.02
2023-09-01 16:14:00,SystemResetWarning,0831.5,5.01,000.00,027.9,026.7,000.0,036.2,029.7,24.2,0000.0,0012.76,0003.74,0003.03
2023-09-01 16:15:00,SystemResetWarning,0831.4,5.00,000.00,028.0,026.9,000.0,036.2,029.7,24.3,0000.0,0012.03,0003.69,0003.01
2023-09-01 16:16:00,SystemResetWarning,0831.5,4.98,000.00,028.0,026.0,000.0,036.1,029.4,24.3,0000.0,0011.74,0003.70,0003.00
2023-09-01 16:17:00,SystemResetWarning,0831.4,5.00,000.00,027.9,024.7,000.0,036.1,029.1,24.0,0000.0,0011.76,0003.71,0003.00
2023-09-01 16:18:00,SystemResetWarning,0831.4,5.01,000.00,027.8,024.8,000.0,036.0,029.2,24.3,0000.0,0011.85,0003.71,0002.99
2023-09-01 16:19:00,SystemResetWarning,0831.5,5.02,000.00,027.8,025.1,000.0,036.1,029.2,24.2,0000.0,0010.98,0003.68,0002.97
2023-09-01 16:20:00,SystemResetWarning,0831.5,4.99,000.00,027.8,025.5,000.0,036.1,029.3,24.3,0000.0,0010.21,0003.67,0002.96
2023-09-01 16:21:00,SystemResetWarning,0831.5,4.98,000.00,027.8,025.8,000.0,036.1,029.4,24.3,0000.0,0009.54,0003.62,0002.95
2023-09-01 16:22:00,SystemResetWarning,0831.5,5.00,000.00,027.9,026.2,000.0,036.1,029.5,24.7,0000.0,0009.32,0003.61,0002.94
2023-09-01 16:23:00,SystemResetWarning,0831.5,5.02,000.00,027.9,026.5,000.0,036.2,029.6,24.7,0000.0,0008.97,0003.61,0002.95
2023-09-01 16:24:00,SystemResetWarning,0831.5,5.00,000.00,028.0,026.7,000.0,036.2,029.7,24.7,0000.0,0008.85,0003.61,0002.94
2023-09-01 16:25:00,SystemResetWarning,0831.4,4.98,000.00,028.0,025.9,000.0,036.2,029.4,25.1,0000.0,0008.04,0003.57,0002.92
2023-09-01 16:26:00,SystemResetWarning,0831.4,5.00,000.00,027.8,024.7,000.0,036.1,029.1,25.4,0000.0,0008.10,0003.58,0002.93
2023-09-01 16:27:00,SystemResetWarning,0831.5,5.02,000.00,027.8,024.7,000.0,036.0,029.1,24.9,0000.0,0008.30,0003.56,0002.92
2023-09-01 16:28:00,SystemResetWarning,0831.5,5.00,000.00,027.8,025.0,000.0,036.0,029.2,25.6,0000.0,0008.84,0003.53,0002.92
2023-09-01 16:29:00,SystemResetWarning,0831.5,5.00,000.00,027.8,025.4,000.0,036.1,029.2,26.3,0000.0,0008.66,0003.52,0002.93
2023-09-01 16:30:00,SystemResetWarning,0831.5,5.00,000.00,027.8,025.8,000.0,036.1,029.4,26.7,0000.0,0008.39,0003.53,0002.94
2023-09-01 16:31:00,SystemResetWarning,0831.5,5.00,000.00,027.8,026.1,000.0,036.1,029.5,26.3,0000.0,0008.41,0003.52,0002.92
2023-09-01 16:32:00,SystemResetWarning,0831.6,5.00,000.00,027.9,026.4,000.0,036.1,029.6,26.4,0000.0,0008.96,0003.51,0002.90
2023-09-01 16:33:00,SystemResetWarning,0831.6,5.00,000.00,027.9,026.7,000.0,036.2,029.7,25.9,0000.0,0009.51,0003.48,0002.88
2023-09-01 16:34:00,SystemResetWarning,0831.6,4.99,000.00,027.9,026.0,000.0,036.1,029.5,25.6,0000.0,0009.24,0003.45,0002.85
2023-09-01 16:35:00,SystemResetWarning,0831.6,5.01,000.00,027.8,024.7,000.0,036.1,029.1,26.2,0000.0,0008.86,0003.40,0002.82
2023-09-01 16:36:00,SystemResetWarning,0831.6,5.01,000.00,027.8,024.7,000.0,036.0,029.1,25.8,0000.0,0008.83,0003.39,0002.81
2023-09-01 16:37:00,SystemResetWarning,0831.6,5.01,000.00,027.7,025.0,000.0,036.0,029.1,25.6,0000.0,0008.79,0003.41,0002.81
2023-09-01 16:38:00,SystemResetWarning,0831.6,5.00,000.00,027.7,025.4,000.0,036.0,029.2,24.9,0000.0,0008.59,0003.40,0002.82
2023-09-01 16:39:00,SystemResetWarning,0831.6,5.00,000.00,027.8,025.7,000.0,036.1,029.4,25.3,0000.0,0008.29,0003.40,0002.81
2023-09-01 16:40:00,SystemResetWarning,0831.6,5.00,000.00,027.8,026.1,000.0,036.1,029.5,24.6,0000.0,0008.46,0003.42,0002.81
2023-09-01 16:41:00,SystemResetWarning,0831.6,5.01,000.00,027.9,026.4,000.0,036.1,029.6,25.3,0000.0,0008.42,0003.42,0002.80
2023-09-01 16:42:00,SystemResetWarning,0831.6,5.00,000.00,027.9,026.7,000.0,036.2,029.7,25.4,0000.0,0008.35,0003.40,0002.81
2023-09-01 16:43:00,SystemResetWarning,0831.6,4.99,000.00,027.9,026.1,000.0,036.1,029.5,24.6,0000.0,0007.89,0003.40,0002.81
2023-09-01 16:44:00,SystemResetWarning,0831.6,4.99,000.00,027.8,024.8,000.0,036.1,029.0,25.5,0000.0,0007.02,0003.39,0002.82
2023-09-01 16:45:00,SystemResetWarning,0831.6,5.01,000.00,027.7,024.7,000.0,036.0,029.1,25.2,0000.0,0006.80,0003.38,0002.82
2023-09-01 16:46:00,SystemResetWarning,0831.6,5.01,000.00,027.7,025.0,000.0,036.0,029.1,24.8,0000.0,0007.82,0003.39,0002.82
2023-09-01 16:47:00,SystemResetWarning,0831.6,5.00,000.00,027.7,025.3,000.0,036.0,029.2,25.4,0000.0,0007.85,0003.39,0002.83
2023-09-01 16:48:00,SystemResetWarning,0831.6,5.00,000.00,027.7,025.7,000.0,036.1,029.3,23.7,0000.0,0007.77,0003.36,0002.83
2023-09-01 16:49:00,SystemResetWarning,0831.6,5.00,000.00,027.8,026.1,000.0,036.1,029.5,24.9,0000.0,0007.86,0003.40,0002.84
2023-09-01 16:50:00,SystemResetWarning,0831.6,5.00,000.00,027.8,026.4,000.0,036.1,029.6,26.0,0000.0,0007.81,0003.43,0002.86
2023-09-01 16:51:00,SystemResetWarning,0831.6,5.00,000.00,027.9,026.4,000.0,036.1,029.6,26.8,0000.0,0008.33,0003.44,0002.87
2023-09-01 16:52:00,SystemResetWarning,0831.6,4.98,000.00,027.8,025.3,000.0,036.1,029.2,26.0,0000.0,0008.32,0003.46,0002.89
2023-09-01 16:53:00,SystemResetWarning,0831.6,5.01,000.00,027.7,024.5,000.0,036.0,029.0,25.5,0000.0,0008.34,0003.48,0002.94
2023-09-01 16:54:00,SystemResetWarning,0831.6,5.02,000.00,027.7,024.7,000.0,036.0,029.0,26.3,0000.0,0008.32,0003.53,0002.99
2023-09-01 16:55:00,SystemResetWarning,0831.6,4.99,000.00,027.7,025.1,000.0,036.0,029.1,26.4,0000.0,0008.82,0003.60,0003.03
2023-09-01 16:56:00,SystemResetWarning,0831.6,5.00,000.00,027.7,025.5,000.0,036.0,029.2,25.3,0000.0,0009.62,0003.63,0003.08
2023-09-01 16:57:00,SystemResetWarning,0831.6,5.00,000.00,027.7,025.9,000.0,036.0,029.4,24.4,0000.0,0009.13,0003.65,0003.11
2023-09-01 16:58:00,SystemResetWarning,0831.6,5.01,000.00,027.8,026.2,000.0,036.1,029.5,25.3,0000.0,0009.10,0003.66,0003.14
2023-09-01 16:59:00,SystemResetWarning,0831.6,5.00,000.00,027.8,026.5,000.0,036.1,029.6,26.0,0000.0,0009.27,0003.68,0003.16
